DateTimeUTC,F1_A11,F1_S11,BsB_S11,BsG_S11,BsR_S11,BbsB_S11,BbsG_S11,BbsR_S11,BaB_A11,BaG_A11,BaR_A11,Tu_S11,T_S11,Uu_S11,U_S11,P_S11,T1_A11
2021-03-31T09:00:00Z,00000200,20000000,,,,,,,0000.07,0000.21,-000.14,16.5,23.5,01.5,01.0,0648.1,30.9
2021-03-31T09:01:00Z,00000200,20000000,,,,,,,-000.18,-000.25,-000.00,16.5,23.5,01.5,01.0,0648.1,30.9
2021-03-31T09:02:00Z,00000200,20000000,,,,,,,-000.26,-000.28,-000.13,16.5,23.5,01.5,01.0,0648.1,30.9
2021-03-31T09:03:00Z,00000200,60000000,,,,,,,0000.18,0000.28,-000.13,16.5,23.5,01.5,01.0,0648.1,30.9
2021-03-31T09:04:00Z,00000200,41000000,0000.72,0000.30,0000.26,0000.38,0000.05,0000.03,0000.28,0000.32,0000.30,16.7,23.4,01.5,01.0,0649.0,30.9
2021-03-31T09:05:00Z,00000200,01000000,0001.00,0000.26,0000.22,0000.55,0000.17,-000.05,-000.22,0000.02,0000.32,16.7,23.4,01.4,00.9,0649.0,30.9
2021-03-31T09:06:00Z,00000200,01000000,0000.79,0000.36,0000.38,0000.13,0000.17,-000.11,0000.39,0000.40,-000.32,16.7,23.3,01.3,00.9,0649.1,30.9
2021-03-31T09:07:00Z,00000200,01000000,0000.95,0000.59,0000.55,-000.21,0000.08,-000.11,0000.52,0000.17,0000.60,16.7,23.3,01.5,01.0,0649.0,30.9
2021-03-31T09:08:00Z,00000200,01000000,0001.29,0000.57,0000.21,0000.05,0000.14,0000.01,0000.16,0000.21,0000.21,16.6,23.3,01.5,01.0,0649.1,30.9
2021-03-31T09:09:00Z,00000200,01000000,0001.05,0000.27,0000.07,0000.37,-000.11,0000.02,0000.34,-000.10,-000.18,16.6,23.3,01.6,01.0,0649.0,30.9
2021-03-31T09:10:00Z,00000200,01000000,0000.64,0000.31,0000.44,0000.21,0000.15,0000.32,0000.40,0000.68,0000.68,16.6,23.3,01.5,01.0,0649.0,30.9
2021-03-31T09:11:00Z,00000200,01000000,0000.55,0000.29,0000.25,-000.32,0000.13,0000.27,0000.38,-000.02,0000.39,16.7,23.3,01.6,01.1,0649.0,30.9
2021-03-31T09:12:00Z,00000200,01000000,0000.75,0000.50,0000.25,0000.10,0000.02,-000.03,0000.84,0000.88,0000.43,16.7,23.3,01.6,01.0,0649.1,30.9
2021-03-31T09:13:00Z,00000200,01000000,0000.76,0000.32,0000.13,0000.26,0000.06,-000.05,-000.38,0000.32,0000.07,16.8,23.3,01.6,01.0,0649.0,30.9
2021-03-31T09:14:00Z,00000200,01000000,0001.03,0000.43,0000.02,0000.09,0000.07,-000.03,0000.56,0000.13,0000.17,16.8,23.3,01.6,01.1,0648.8,30.9
2021-03-31T09:15:00Z,00000200,01000000,0000.23,0000.18,0000.14,-000.28,0000.14,-000.16,0000.51,0000.47,0000.22,16.8,23.3,01.7,01.1,0648.9,30.9
2021-03-31T09:16:00Z,00000200,01000000,0001.56,0000.44,0000.25,-000.05,0000.10,0000.06,-000.01,0000.61,0000.32,16.8,23.3,01.7,01.1,0648.9,30.9
2021-03-31T09:17:00Z,00000200,01000000,0000.49,0000.51,0000.30,-000.28,0000.07,0000.19,0000.22,0000.07,-000.07,16.8,23.3,01.7,01.1,0648.9,30.9
2021-03-31T09:18:00Z,00000200,01000000,0000.88,0000.38,0000.30,0000.20,0000.20,-000.39,0000.45,0000.28,0000.98,16.8,23.3,01.7,01.1,0649.0,30.9
2021-03-31T09:19:00Z,00000200,01000000,0001.64,0000.48,0000.27,0000.15,0000.10,-000.08,0000.23,-000.07,-000.01,16.7,23.3,01.7,01.2,0649.0,30.9
2021-03-31T09:20:00Z,00000200,01000000,0001.41,0000.37,0000.31,-000.10,0000.00,0000.26,0000.29,0000.40,0000.00,16.7,23.3,01.7,01.1,0649.0,30.9
2021-03-31T09:21:00Z,00000200,01000000,0000.59,0000.26,0000.47,0000.03,0000.08,0000.06,0000.02,0000.27,0000.17,16.7,23.3,01.7,01.2,0648.9,30.9
2021-03-31T09:22:00Z,00000200,01000000,0000.67,0000.43,0000.07,0000.43,0000.09,0000.03,0000.62,0000.11,0000.08,16.7,23.3,01.8,01.2,0648.9,30.9
2021-03-31T09:23:00Z,00000200,01000000,0000.68,0000.04,0000.39,0000.11,0000.19,0000.09,-000.08,0000.20,0000.03,16.7,23.3,01.8,01.2,0649.0,30.9
2021-03-31T09:24:00Z,00000200,01000000,0000.13,0000.47,0000.31,-000.12,0000.22,-000.10,0000.97,0000.60,0000.87,16.6,23.3,01.8,01.2,0648.9,30.9
2021-03-31T09:25:00Z,00000200,00000000,0000.57,0000.52,0000.09,0000.04,-000.10,0000.04,0000.18,0000.70,0000.20,16.6,23.3,01.8,01.2,0649.0,30.9
2021-03-31T09:26:00Z,00000200,01000000,0000.74,0000.64,0000.51,0000.43,0000.28,0000.16,0000.90,0000.14,0000.50,16.6,23.3,01.9,01.3,0648.8,30.9
2021-03-31T09:27:00Z,00000200,00000000,0001.01,0000.39,0000.08,-000.32,0000.16,-000.20,0000.22,0000.26,0000.14,16.7,23.3,01.9,01.3,0648.9,30.9
2021-03-31T09:28:00Z,00000200,00000000,0000.74,0000.66,0000.43,-000.25,0000.08,0000.11,0001.03,0001.02,0000.67,16.8,23.3,02.0,01.3,0648.9,30.9
2021-03-31T09:29:00Z,00000200,00000000,0000.31,0000.51,0000.42,0000.07,0000.25,0000.11,-000.34,-000.10,0000.09,16.8,23.3,02.1,01.4,0649.0,30.9
2021-03-31T09:30:00Z,00000200,01000000,0001.14,0000.63,0000.26,0000.08,0000.08,0000.17,0000.21,0000.11,0000.13,16.9,23.4,02.0,01.3,0648.8,30.9
2021-03-31T09:31:00Z,00000200,00000000,0001.19,0000.27,0000.50,0000.33,0000.03,0000.11,0000.26,0000.56,0000.09,16.9,23.4,01.9,01.3,0648.7,30.9
2021-03-31T09:32:00Z,00000200,01000000,0001.44,0000.53,0000.21,-000.03,0000.20,0000.14,0000.20,0000.16,0000.31,16.9,23.4,01.9,01.3,0648.9,30.9
2021-03-31T09:33:00Z,00000200,01000000,0000.92,0000.47,0000.39,0000.24,-000.07,-000.04,0000.09,-000.11,0000.01,16.9,23.4,01.8,01.2,0648.9,30.9
2021-03-31T09:34:00Z,00000200,00000000,0000.97,0000.60,0000.43,0000.09,-000.04,0000.20,0000.25,0000.26,0000.16,16.9,23.4,01.9,01.3,0648.8,30.9
2021-03-31T09:35:00Z,00000200,00000000,0000.72,0000.66,0000.08,-000.20,0000.17,-000.16,-000.02,0000.04,0000.05,16.8,23.4,01.8,01.2,0648.8,30.9
2021-03-31T09:36:00Z,00000200,01000000,0001.32,0000.48,0000.39,0000.23,0000.26,0000.09,0000.35,0000.35,0000.32,16.8,23.4,01.9,01.2,0648.8,30.9
2021-03-31T09:37:00Z,00000200,01000000,0001.17,0000.47,0000.33,0000.17,0000.10,0000.14,0000.28,0000.15,0000.38,16.8,23.3,01.9,01.3,0648.7,30.9
2021-03-31T09:38:00Z,00000200,01000000,0001.45,0000.07,0000.40,0000.19,0000.27,-000.09,0000.63,0000.51,0000.38,16.8,23.3,01.8,01.2,0648.8,30.9
2021-03-31T09:39:00Z,00000200,01000000,0000.80,0000.44,0000.31,0000.11,0000.33,-000.08,-000.02,-000.42,0000.04,16.8,23.3,01.8,01.2,0648.8,30.9
2021-03-31T09:40:00Z,00000200,01000000,0000.77,0000.36,0000.26,0000.25,0000.14,-000.16,0000.55,0000.69,0000.17,16.8,23.3,01.9,01.3,0648.6,30.9
2021-03-31T09:41:00Z,00000200,00000000,0000.91,0000.19,0000.20,0000.11,0000.25,-000.00,0000.84,0000.81,0000.60,16.8,23.3,01.9,01.3,0648.7,30.9
2021-03-31T09:42:00Z,00000200,00000000,0000.96,0000.53,0000.51,-000.15,0000.52,-000.11,0000.94,0000.89,0000.76,16.8,23.3,02.0,01.3,0648.6,30.9
2021-03-31T09:43:00Z,00000200,00000000,0000.90,0000.62,0000.51,0000.24,0000.11,-000.00,-000.39,-000.28,-000.37,16.8,23.3,02.1,01.4,0648.7,30.9
2021-03-31T09:44:00Z,00000200,00000000,0000.64,0000.36,0000.42,0000.30,0000.01,0000.07,0000.46,0000.26,0000.36,16.9,23.3,02.0,01.3,0648.6,30.9
2021-03-31T09:45:00Z,00000200,01000000,0000.61,0000.13,0000.44,-000.01,-000.02,0000.39,-000.98,-000.64,-000.27,16.9,23.3,01.9,01.3,0648.6,30.9
2021-03-31T09:46:00Z,00000200,01000000,0000.63,0000.14,0000.47,0000.09,0000.06,-000.03,0000.17,0000.08,-000.10,16.9,23.3,01.7,01.1,0648.5,30.9
2021-03-31T09:47:00Z,00000200,01000000,0000.15,0000.77,0000.37,0000.02,0000.24,-000.14,0000.64,0000.49,0000.69,16.8,23.4,01.7,01.1,0648.5,30.9
2021-03-31T09:48:00Z,00000200,01000000,0000.92,0000.53,0000.23,0000.11,0000.03,0000.05,-000.35,0000.03,-000.43,16.8,23.3,01.8,01.2,0648.5,30.9
2021-03-31T09:49:00Z,00000200,01000000,0001.01,0000.20,0000.55,0000.18,0000.24,0000.24,0001.00,0000.37,0000.49,16.8,23.3,01.7,01.1,0648.5,30.9
2021-03-31T09:50:00Z,00000200,01000000,0001.24,0000.41,0000.20,0000.54,0000.14,-000.11,0000.12,0000.65,0000.51,16.7,23.3,01.8,01.2,0648.6,30.9
2021-03-31T09:51:00Z,00000200,01000000,0000.90,0000.55,0000.48,0000.33,0000.15,0000.17,-000.02,-000.43,-000.55,16.7,23.3,01.9,01.2,0648.7,30.9
2021-03-31T09:52:00Z,00000200,01000000,0000.65,0000.55,0000.15,0000.40,-000.01,0000.02,0000.74,0000.65,0001.13,16.7,23.3,01.8,01.2,0648.5,30.9
2021-03-31T09:53:00Z,00000200,01000000,0000.07,0000.31,0000.07,-000.16,0000.17,0000.09,0000.93,0001.23,0000.20,16.7,23.3,02.0,01.3,0648.5,30.9
2021-03-31T09:54:00Z,00000200,00000000,0000.99,0000.36,0000.34,0000.14,0000.13,-000.14,0000.49,0000.01,0000.68,16.6,23.3,02.1,01.4,0648.7,30.9
2021-03-31T09:55:00Z,00000200,00000000,0001.43,0000.49,0000.22,-000.27,0000.14,0000.03,0000.16,0000.17,0000.05,16.7,23.3,02.2,01.4,0648.5,30.9
2021-03-31T09:56:00Z,00000200,00000000,0000.93,0000.38,0000.14,-000.18,-000.10,-000.05,0000.90,0001.05,0001.02,16.7,23.3,02.2,01.4,0648.4,30.9
2021-03-31T09:57:00Z,00000200,40000000,,,,,,,0000.15,0000.08,-000.13,16.7,23.3,02.9,01.9,0648.7,30.9
2021-03-31T09:58:00Z,00000200,60000000,,,,,,,-000.32,-000.01,0000.25,16.5,23.4,02.1,01.3,0647.7,30.9
2021-03-31T09:59:00Z,00000200,20000000,,,,,,,-000.29,-000.23,-000.20,16.5,23.5,02.0,01.3,0647.7,30.9
